TIANMU-1 04

Last updated on Mon Sep 21 2026 00:02:41 GMT+0000 (Coordinated Universal Time)

1 55974U 23039B 26263.57207228 .00012176 00000+0 21550-3 0 9991 2 55974 97.5198 80.6595 0004883 96.4870 263.6938 15.50443729195610
UTC large
Height (km)
Speed (km/s)
/
Latitude / Longitude
Inclination (degrees)
Orbital Period (minutes)
Azimuth
Elevation
Range (km)
Doppler Factor

Next 0 passes for location: London (51.5072 / 0.1276)

No passes found over London.
TIANMU-1 04